User: anonymous   Login
Location: Unspecified
(0.0000°N, 0.0000°E)
Time: 22:30:11
(UTC+00:00)
Language:

STARLINK-30852 - Orbit

View from above orbital plane
View from above orbital plane
View from above satellite
View from above satellite

Ground track
Ground track

The orbit is defined by the following mean orbital elements,

1 58373U          26145.34873238 +.00000000 +00000-0 +76537-4 0 00007
2 58373  43.0029 277.4535 0000853 274.1196  85.9558 15.27577584    06
Epoch (UTC): 25 May 2026 08:22:10
Eccentricity: 0.0000853
inclination: 43.0029°
perigee height: 482 km
apogee height: 484 km
right ascension of ascending node: 277.4535°
argument of perigee: 274.1196°
revolutions per day: 15.27577584
mean anomaly at epoch: 85.9558°

The dashed part of the orbit path shows where the satellite is in the earth's shadow,  

DLR